| time (UTC) | temp F | wind direction | speed knots | gust knots | rain 1hr in | rain 24hr in | rain mn in | humidity % | barometer mb |
| 20260507234537 | 52 | 5 | 0.9 | 4.3 | 0.00 | 0.02 | 0.00 | 87 | 1013.6 |
| 20260507233036 | 52 | 355 | 1.7 | 3.5 | 0.00 | 0.02 | 0.00 | 87 | 1013.6 |
| 20260507231537 | 53 | 49 | 1.7 | 3.5 | 0.00 | 0.02 | 0.00 | 87 | 1013.7 |
| 20260507230032 | 53 | 340 | 0.9 | 2.6 | 0.00 | 0.02 | 0.00 | 86 | 1013.8 |
| 20260507224541 | 53 | 38 | 1.7 | 3.5 | 0.00 | 0.02 | 0.00 | 86 | 1013.7 |
| 20260507223031 | 53 | 37 | 0.9 | 3.5 | 0.00 | 0.02 | 0.00 | 85 | 1013.8 |
| 20260507221527 | 54 | 42 | 1.7 | 4.3 | 0.00 | 0.02 | 0.00 | 85 | 1013.7 |
| 20260507220038 | 54 | 20 | 1.7 | 2.6 | 0.00 | 0.02 | 0.00 | 84 | 1013.6 |
| 20260507214533 | 54 | 40 | 0.9 | 3.5 | 0.00 | 0.02 | 0.02 | 84 | 1013.6 |
| 20260507213022 | 55 | 38 | 0.9 | 3.5 | 0.00 | 0.02 | 0.02 | 83 | 1013.4 |
| 20260507211523 | 55 | 42 | 1.7 | 3.5 | 0.00 | 0.02 | 0.02 | 83 | 1013.3 |
| 20260507210022 | 56 | 30 | 0.9 | 2.6 | 0.00 | 0.02 | 0.02 | 82 | 1013.3 |
| 20260507204521 | 56 | 21 | 0.9 | 1.7 | 0.00 | 0.02 | 0.02 | 81 | 1013.2 |
| 20260507203027 | 57 | 51 | 1.7 | 3.5 | 0.00 | 0.02 | 0.02 | 80 | 1013.1 |
| 20260507201522 | 58 | 41 | 0.0 | 2.6 | 0.00 | 0.02 | 0.02 | 79 | 1013.1 |
| 20260507200020 | 59 | 5 | 0.9 | 2.6 | 0.00 | 0.02 | 0.02 | 77 | 1012.8 |
| 20260507194519 | 60 | 40 | 1.7 | 2.6 | 0.00 | 0.02 | 0.02 | 75 | 1012.6 |
| 20260507193019 | 61 | 40 | 0.9 | 2.6 | 0.00 | 0.02 | 0.02 | 73 | 1012.4 |
| 20260507191518 | 62 | 42 | 1.7 | 2.6 | 0.00 | 0.02 | 0.02 | 70 | 1012.2 |
| 20260507190018 | 63 | 203 | 0.0 | 0.9 | 0.00 | 0.02 | 0.02 | 65 | 1011.9 |
| 20260507184517 | 64 | 203 | 0.0 | 0.9 | 0.00 | 0.08 | 0.02 | 63 | 1011.9 |
| 20260507183018 | 65 | 203 | 0.0 | 0.0 | 0.00 | 0.08 | 0.02 | 62 | 1011.7 |
| 20260507181515 | 66 | 203 | 0.9 | 2.6 | 0.00 | 0.08 | 0.02 | 60 | 1011.7 |
| 20260507180016 | 67 | 202 | 1.7 | 5.2 | 0.00 | 0.08 | 0.02 | 57 | 1011.5 |
| 20260507174522 | 67 | 165 | 1.7 | 5.2 | 0.00 | 0.23 | 0.02 | 56 | 1011.3 |
| 20260507173018 | 68 | 204 | 3.5 | 6.1 | 0.00 | 0.23 | 0.02 | 56 | 1011.2 |
| 20260507171517 | 68 | 189 | 3.5 | 6.1 | 0.00 | 0.23 | 0.02 | 54 | 1011.1 |
| 20260507170015 | 69 | 190 | 4.3 | 7.0 | 0.00 | 0.23 | 0.02 | 54 | 1011.1 |
| 20260507164512 | 69 | 194 | 2.6 | 8.7 | 0.00 | 0.23 | 0.02 | 54 | 1011.0 |
| 20260507163012 | 69 | 189 | 1.7 | 7.0 | 0.00 | 0.23 | 0.02 | 51 | 1011.0 |
| 20260507161511 | 69 | 201 | 0.9 | 6.1 | 0.00 | 0.23 | 0.02 | 52 | 1010.9 |
| 20260507160015 | 69 | 193 | 5.2 | 9.6 | 0.00 | 0.23 | 0.02 | 51 | 1010.9 |
| 20260507154511 | 69 | 193 | 3.5 | 7.8 | 0.00 | 0.23 | 0.02 | 51 | 1011.0 |
| 20260507153010 | 69 | 211 | 2.6 | 6.1 | 0.00 | 0.23 | 0.02 | 49 | 1011.0 |
| 20260507151509 | 71 | 197 | 2.6 | 4.3 | 0.00 | 0.23 | 0.02 | 48 | 1011.1 |
| 20260507150007 | 69 | 255 | 2.6 | 7.8 | 0.00 | 0.23 | 0.02 | 51 | 1011.1 |
| 20260507144510 | 69 | 159 | 2.6 | 5.2 | 0.00 | 0.28 | 0.02 | 52 | 1011.1 |
| 20260507143005 | 68 | 157 | 1.7 | 7.8 | 0.00 | 0.28 | 0.02 | 54 | 1011.2 |
| 20260507141504 | 69 | 192 | 1.7 | 7.0 | 0.00 | 0.28 | 0.02 | 52 | 1011.3 |
| 20260507140001 | 69 | 239 | 3.5 | 8.7 | 0.00 | 0.28 | 0.02 | 55 | 1011.5 |
| 20260507134600 | 68 | 269 | 0.9 | 5.2 | 0.00 | 0.50 | 0.02 | 54 | 1011.5 |
| 20260507133106 | 68 | 226 | 0.9 | 10.4 | 0.00 | 0.50 | 0.02 | 53 | 1011.8 |
| 20260507131603 | 68 | 186 | 5.2 | 12.2 | 0.00 | 0.50 | 0.02 | 55 | 1011.8 |
| 20260507130108 | 67 | 207 | 1.7 | 5.2 | 0.00 | 0.50 | 0.02 | 58 | 1012.0 |
| 20260507124556 | 67 | 185 | 3.5 | 8.7 | 0.00 | 0.67 | 0.02 | 57 | 1012.1 |
| 20260507123053 | 66 | 140 | 7.0 | 12.2 | 0.00 | 0.67 | 0.02 | 59 | 1012.1 |
| 20260507121604 | 67 | 174 | 3.5 | 7.8 | 0.00 | 0.67 | 0.02 | 59 | 1012.3 |
| 20260507120052 | 66 | 219 | 1.7 | 7.8 | 0.00 | 0.67 | 0.02 | 59 | 1012.3 |
| 20260507114604 | 66 | 159 | 4.3 | 7.8 | 0.00 | 0.67 | 0.02 | 59 | 1012.4 |
| 20260507113050 | 65 | 212 | 3.5 | 9.6 | 0.00 | 0.67 | 0.02 | 59 | 1012.5 |
| 20260507111546 | 65 | 121 | 1.7 | 7.8 | 0.00 | 0.67 | 0.02 | 61 | 1012.6 |
| 20260507110046 | 65 | 239 | 2.6 | 7.0 | 0.00 | 0.67 | 0.02 | 65 | 1012.7 |
| 20260507104544 | 65 | 127 | 3.5 | 7.0 | 0.00 | 0.67 | 0.02 | 63 | 1012.9 |
| 20260507103044 | 64 | 161 | 3.5 | 7.0 | 0.00 | 0.67 | 0.02 | 64 | 1013.0 |
| 20260507101540 | 63 | 249 | 2.6 | 6.1 | 0.00 | 0.67 | 0.02 | 65 | 1013.2 |
| 20260507100041 | 63 | 207 | 2.6 | 6.1 | 0.00 | 0.67 | 0.02 | 66 | 1013.2 |
| 20260507094539 | 63 | 211 | 2.6 | 5.2 | 0.00 | 0.68 | 0.02 | 66 | 1013.2 |
| 20260507093033 | 62 | 323 | 1.7 | 6.1 | 0.00 | 0.68 | 0.02 | 66 | 1013.2 |
| 20260507091531 | 62 | 144 | 1.7 | 5.2 | 0.00 | 0.68 | 0.02 | 66 | 1013.2 |
| 20260507090030 | 60 | 165 | 1.7 | 7.8 | 0.00 | 0.68 | 0.02 | 71 | 1013.1 |
| 20260507084526 | 60 | 161 | 0.9 | 5.2 | 0.00 | 0.68 | 0.02 | 73 | 1013.2 |
| 20260507083023 | 59 | 84 | 2.6 | 7.8 | 0.00 | 0.68 | 0.02 | 74 | 1013.0 |
| 20260507081535 | 59 | 159 | 2.6 | 6.1 | 0.00 | 0.68 | 0.02 | 77 | 1013.0 |
| 20260507080018 | 59 | 185 | 0.9 | 2.6 | 0.00 | 0.68 | 0.02 | 79 | 1012.9 |
| 20260507074524 | 57 | 40 | 1.7 | 3.5 | 0.00 | 0.68 | 0.02 | 81 | 1012.8 |
| 20260507073012 | 56 | 342 | 1.7 | 7.8 | 0.00 | 0.68 | 0.02 | 81 | 1012.8 |
| 20260507071508 | 55 | 5 | 3.5 | 7.8 | 0.00 | 0.68 | 0.02 | 83 | 1012.8 |
| 20260507070010 | 55 | 11 | 1.7 | 5.2 | 0.00 | 0.68 | 0.02 | 84 | 1012.8 |
| 20260507064507 | 54 | 339 | 3.5 | 7.8 | 0.00 | 0.69 | 0.02 | 84 | 1012.6 |
| 20260507063101 | 54 | 340 | 3.5 | 9.6 | 0.00 | 0.69 | 0.02 | 85 | 1012.5 |
| 20260507061607 | 54 | 13 | 2.6 | 5.2 | 0.00 | 0.69 | 0.02 | 87 | 1012.4 |
| 20260507060055 | 53 | 5 | 1.7 | 4.3 | 0.00 | 0.69 | 0.02 | 88 | 1012.3 |
| 20260507054633 | 52 | 336 | 2.6 | 7.0 | 0.00 | 0.69 | 0.02 | 89 | 1012.3 |
| 20260507053052 | 52 | 338 | 1.7 | 3.5 | 0.00 | 0.69 | 0.02 | 90 | 1012.1 |
| 20260507051546 | 51 | 33 | 1.7 | 3.5 | 0.00 | 0.69 | 0.02 | 90 | 1011.9 |
| 20260507050046 | 51 | 47 | 1.7 | 3.5 | 0.00 | 0.69 | 0.02 | 90 | 1011.7 |
| 20260507044549 | 51 | 350 | 0.9 | 4.3 | 0.00 | 0.69 | 0.02 | 90 | 1011.6 |
| 20260507043042 | 51 | 46 | 1.7 | 4.3 | 0.00 | 0.69 | 0.02 | 90 | 1011.3 |
| 20260507041541 | 51 | 13 | 0.9 | 5.2 | 0.00 | 0.69 | 0.02 | 90 | 1011.2 |
| 20260507040038 | 51 | 32 | 0.9 | 3.5 | 0.01 | 0.69 | 0.02 | 90 | 1011.2 |
| 20260507034535 | 51 | 26 | 2.6 | 4.3 | 0.01 | 0.71 | 0.02 | 90 | 1011.2 |
| 20260507033034 | 51 | 42 | 3.5 | 6.1 | 0.01 | 0.71 | 0.02 | 90 | 1011.1 |
| 20260507031533 | 51 | 31 | 0.9 | 5.2 | 0.01 | 0.71 | 0.02 | 90 | 1011.1 |
| 20260507030041 | 51 | 38 | 2.6 | 6.1 | 0.00 | 0.70 | 0.01 | 90 | 1011.1 |
| 20260507024536 | 52 | 35 | 0.9 | 5.2 | 0.00 | 0.76 | 0.01 | 90 | 1011.0 |
| 20260507023030 | 52 | 9 | 3.5 | 7.0 | 0.00 | 0.76 | 0.01 | 90 | 1011.0 |
| 20260507021529 | 52 | 41 | 3.5 | 8.7 | 0.00 | 0.76 | 0.01 | 90 | 1011.2 |
| 20260507020028 | 52 | 29 | 0.9 | 4.3 | 0.00 | 0.76 | 0.01 | 91 | 1011.2 |
| 20260507014538 | 52 | 42 | 2.6 | 7.0 | 0.00 | 0.76 | 0.01 | 91 | 1011.0 |
| 20260507013025 | 52 | 22 | 0.9 | 2.6 | 0.00 | 0.76 | 0.01 | 91 | 1011.0 |
| 20260507011528 | 52 | 54 | 3.5 | 7.8 | 0.00 | 0.76 | 0.01 | 90 | 1010.8 |
| 20260507010023 | 52 | 32 | 0.0 | 2.6 | 0.01 | 0.76 | 0.01 | 90 | 1010.9 |
| 20260507004524 | 52 | 327 | 1.7 | 2.6 | 0.01 | 0.76 | 0.01 | 90 | 1010.9 |
| 20260507003021 | 52 | 355 | 1.7 | 7.0 | 0.01 | 0.76 | 0.01 | 90 | 1010.7 |
| 20260507001525 | 52 | 19 | 6.1 | 10.4 | 0.01 | 0.76 | 0.01 | 90 | 1010.7 |
| 20260507000026 | 52 | 35 | 4.3 | 8.7 | 0.00 | 0.76 | 0.00 | 90 | 1010.7 |